Regional Weather Roundup
Issued by NWS

Home | Current Version | Previous Version | Text Only | Print | Product List | Glossary Off
Versions: 1 2 3 4 5 6 7 8 9 10 11 12 13 14 15 16 17 18 19 20 21 22 23 24 25 26 27 28 29 30 31 32 33 34 35 36 37 38 39 40 41 42 43 44 45 46 47 48 49 50

000
ASUS43 KOAX 231502
RWRNE

WEATHER ROUNDUP FOR NEBRASKA
NATIONAL WEATHER SERVICE OMAHA NE
1000 AM CDT SUN APR 23 2017

NOTES: SATELLITE DATA IS BEING USED TO AUGMENT CLOUD COVER ABOVE
       12000 FEET.
       "FAIR" INDICATES FEW OR NO CLOUDS BELOW 12,000 FEET WITH NO
       SIGNIFICANT WEATHER AND/OR OBSTRUCTIONS TO VISIBILITY.

  * THESE STATIONS DO NOT REPORT WEATHER SUCH AS RAIN...SNOW OR FOG.

NEZ001>004-019>022-054>056-231600-
NEBRASKA PANHANDLE

CITY           SKY/WX    TMP DP  RH WIND       PRES   REMARKS
SCOTTSBLUFF    MOSUNNY   54  35  48 SE15      29.92F
ALLIANCE       LGT RAIN  52  35  52 S22G32    29.92F
CHADRON        CLOUDY    56  35  45 SW17      29.86F
KIMBALL        CLOUDY    49  38  68 SW15      29.98F
SIDNEY         CLOUDY    49  35  58 S22       29.98F
$$

NEZ057>060-069>072-079>082-231600-
SOUTHWEST NEBRASKA

CITY           SKY/WX    TMP DP  RH WIND       PRES   REMARKS
NORTH PLATTE   SUNNY     56  33  42 S18G25    30.07F
IMPERIAL       SUNNY     51  36  56 S17G24    30.07F
LEXINGTON      SUNNY     56  30  36 SW14G20   30.13S
MCCOOK         SUNNY     57  34  41 S14G22    30.12F
OGALLALA       SUNNY     56  34  43 S24G30    30.03F
$$

NEZ005>010-023>029-035>040-094-231600-
NORTH CENTRAL NEBRASKA

CITY           SKY/WX    TMP DP  RH WIND       PRES   REMARKS
VALENTINE      SUNNY     59  31  34 SW32G40   29.94F
AINSWORTH      SUNNY     56  34  43 S24G33    29.99F
BROKEN BOW     SUNNY     57  30  35 S20G26    30.09F
O`NEILL        SUNNY     60  29  31 S20G26    30.05F
ORD            SUNNY     58  32  37 SW15      30.10S
THEDFORD       SUNNY     56  32  39 S22G35    30.03F
$$

NEZ041-046>049-061>064-073>077-083>087-231600-
SOUTH CENTRAL NEBRASKA

CITY           SKY/WX    TMP DP  RH WIND       PRES   REMARKS
GRAND ISLAND   SUNNY     59  32  36 S12       30.14F
AURORA         SUNNY     61  29  30 SW16      30.15S
HASTINGS       SUNNY     59  31  34 S10       30.15F
HEBRON         SUNNY     60  31  34 SW9       30.17S
HOLDREGE       SUNNY     57  29  34 SW16      30.14S
KEARNEY *      SUNNY     57  30  35 S16G22    30.14S
YORK           SUNNY     59  32  36 S14       30.15F
$$

NEZ011>018-030>034-042>045-231600-
NORTHEAST NEBRASKA

CITY           SKY/WX    TMP DP  RH WIND       PRES   REMARKS
NORFOLK        SUNNY     60  31  33 SW18      30.10F
ALBION         SUNNY     59  35  40 SW12      30.12F
BLAIR          SUNNY     60  36  40 S10       30.14F
FREMONT        SUNNY     61  37  40 S10       30.14F
TEKAMAH        SUNNY     60  42  51 S7        30.13F
WAYNE          SUNNY     60  36  40 SW17      30.10S
$$

NEZ050>053-065>068-078-088>093-231600-
SOUTHEAST NEBRASKA

CITY           SKY/WX    TMP DP  RH WIND       PRES   REMARKS
LINCOLN        SUNNY     59  38  45 S9        30.17F
OMAHA EPPLEY   MOSUNNY   58  41  53 S7        30.15F
BEATRICE       SUNNY     58  40  49 SW6       30.17F
FALLS CITY     SUNNY     58  38  47 W5        30.17F
NEBRASKA CITY  SUNNY     60  27  28 W8        30.16F
PLATTSMOUTH    SUNNY     61  29  29 SW7       30.16S
$$

NEZ044-045-051>053-067-231600-
OMAHA AREA

CITY           SKY/WX    TMP DP  RH WIND       PRES   REMARKS
OMAHA EPPLEY   MOSUNNY   58  41  53 S7        30.15F
BLAIR          SUNNY     60  36  40 S10       30.14F
FREMONT        SUNNY     61  37  40 S10       30.14F
MILLARD        SUNNY     62  39  42 S3        30.15F
OFFUTT AFB     SUNNY     57  41  55 S3        30.15F
PLATTSMOUTH    SUNNY     61  29  29 SW7       30.16S
WAHOO          FAIR      61  36  39 S6        30.14F
$$




USA.gov is the U.S. government's official web portal to all federal, state and local government web resources and services.